1974,6,1,-0.10806,-0.092323,14,0.14213
1974,6,2,-0.10516,-0.090448,14,0.1387
1974,6,3,-0.10484,-0.089376,14,0.13776
1974,6,4,-0.10471,-0.089091,14,0.13748
1974,6,5,-0.10465,-0.087169,14,0.1362
1974,6,6,-0.11113,-0.09593,14,0.14681
1974,6,7,-0.10583,-0.093194,14,0.14102
1974,6,8,-0.11106,-0.09727,14,0.14763
1974,6,9,-0.11161,-0.099899,14,0.14979
1974,6,10,-0.1123,-0.10264,14,0.15214
1974,6,11,-0.11797,-0.092609,14,0.14998
1974,6,12,-0.11534,-0.092281,14,0.14771
1974,6,13,-0.11459,-0.091486,14,0.14663
1974,6,14,-0.11441,-0.091602,14,0.14656
1974,6,15,-0.11451,-0.090789,14,0.14613
1974,6,16,-0.12029,-0.099662,14,0.15621
1974,6,17,-0.11416,-0.097473,14,0.15011
1974,6,18,-0.11874,-0.1017,14,0.15634
1974,6,19,-0.11855,-0.10448,14,0.15802
1974,6,20,-0.11803,-0.10673,14,0.15913
1974,6,21,-0.12131,-0.095197,14,0.15421
1974,6,22,-0.11743,-0.094686,14,0.15085
1974,6,23,-0.11588,-0.094733,14,0.14968
1974,6,24,-0.11484,-0.095392,14,0.14929
1974,6,25,-0.11384,-0.094427,14,0.14791
1974,6,26,-0.11921,-0.10245,14,0.15719
1974,6,27,-0.11196,-0.099401,14,0.14972
1974,6,28,-0.11604,-0.1024,14,0.15476
1974,6,29,-0.11551,-0.10408,14,0.15548
1974,6,30,-0.1151,-0.10592,14,0.15642
1974,7,1,-0.11839,-0.093585,14,0.15091
1974,7,2,-0.11476,-0.092225,14,0.14722
1974,7,3,-0.11378,-0.091243,14,0.14584
1974,7,4,-0.11388,-0.091501,14,0.14608
1974,7,5,-0.11431,-0.090384,14,0.14573
1974,7,6,-0.12098,-0.098106,14,0.15576
1974,7,7,-0.11447,-0.095254,14,0.14892
1974,7,8,-0.1194,-0.098633,14,0.15487
1974,7,9,-0.11882,-0.10072,14,0.15576
1974,7,10,-0.11779,-0.10265,14,0.15624
1974,7,11,-0.1195,-0.089227,14,0.14914
1974,7,12,-0.11462,-0.087487,14,0.14419
1974,7,13,-0.11261,-0.085876,14,0.14162
1974,7,14,-0.11154,-0.085512,14,0.14055
1974,7,15,-0.1106,-0.083644,14,0.13867
1974,7,16,-0.11716,-0.091681,14,0.14877
1974,7,17,-0.1106,-0.089859,14,0.1425
1974,7,18,-0.11645,-0.094159,14,0.14976
1974,7,19,-0.11663,-0.09714,14,0.15178
1974,7,20,-0.11622,-0.099785,14,0.15318
1974,7,21,-0.11792,-0.086449,14,0.14621
1974,7,22,-0.11226,-0.084924,14,0.14077
1974,7,23,-0.1092,-0.083433,14,0.13743
1974,7,24,-0.1074,-0.083546,14,0.13607
1974,7,25,-0.10617,-0.082339,14,0.13436
1974,7,26,-0.11264,-0.090075,14,0.14422
1974,7,27,-0.10497,-0.087643,14,0.13675
1974,7,28,-0.11035,-0.091121,14,0.14311
1974,7,29,-0.11042,-0.093453,14,0.14466
1974,7,30,-0.11026,-0.095503,14,0.14587
1974,7,31,-0.11216,-0.081671,14,0.13874
1974,8,1,-0.10746,-0.08059,14,0.13432
1974,8,2,-0.1053,-0.079373,14,0.13186
1974,8,3,-0.10457,-0.07951,14,0.13137
1974,8,4,-0.10462,-0.078469,14,0.13078
1974,8,5,-0.11287,-0.087116,14,0.14258
1974,8,6,-0.10619,-0.086235,14,0.13679
1974,8,7,-0.11263,-0.090415,14,0.14443
1974,8,8,-0.11308,-0.092724,14,0.14623
1974,8,9,-0.11358,-0.094922,14,0.14802
1974,8,10,-0.11565,-0.080802,14,0.14108
1974,8,11,-0.11281,-0.080847,14,0.13879
1974,8,12,-0.11291,-0.080761,14,0.13882
1974,8,13,-0.1143,-0.081627,14,0.14046
1974,8,14,-0.11585,-0.080652,14,0.14116
1974,8,15,-0.12497,-0.088081,14,0.15289
1974,8,16,-0.11879,-0.086711,14,0.14707
1974,8,17,-0.12591,-0.090277,14,0.15493
1974,8,18,-0.12649,-0.092969,14,0.15698
1974,8,19,-0.1264,-0.095361,14,0.15834
1974,8,20,-0.12748,-0.081346,14,0.15122
1974,8,21,-0.12302,-0.081441,14,0.14754
1974,8,22,-0.12056,-0.080564,14,0.145
1974,8,23,-0.11921,-0.080589,14,0.14389
1974,8,24,-0.11848,-0.079625,14,0.14275
1974,8,25,-0.12653,-0.087507,14,0.15385
1974,8,26,-0.11926,-0.087075,14,0.14767
1974,8,27,-0.12626,-0.091897,14,0.15617
1974,8,28,-0.12663,-0.095407,14,0.15855
1974,8,29,-0.12638,-0.098171,14,0.16003
1974,8,30,-0.12703,-0.083966,14,0.15227
1974,8,31,-0.12253,-0.084246,14,0.1487
1974,9,1,-0.12037,-0.083845,14,0.14669
1974,9,2,-0.11992,-0.084692,14,0.14681
1974,9,3,-0.1199,-0.083929,14,0.14636
1974,9,4,-0.12897,-0.091748,14,0.15828
1974,9,5,-0.1214,-0.09134,14,0.15192
1974,9,6,-0.12795,-0.095602,14,0.15972
1974,9,7,-0.12801,-0.098733,14,0.16166
1974,9,8,-0.1281,-0.10174,14,0.16358
1974,9,9,-0.12771,-0.087358,14,0.15473
1974,9,10,-0.12355,-0.088491,14,0.15197
1974,9,11,-0.12173,-0.088905,14,0.15074
1974,9,12,-0.12087,-0.089736,14,0.15054
1974,9,13,-0.12015,-0.088772,14,0.14939
1974,9,14,-0.12852,-0.095731,14,0.16026
1974,9,15,-0.12056,-0.095143,14,0.15358
1974,9,16,-0.12755,-0.0988,14,0.16134
1974,9,17,-0.12794,-0.10213,14,0.1637
1974,9,18,-0.12853,-0.1057,14,0.16641
1974,9,19,-0.12759,-0.091092,14,0.15677
1974,9,20,-0.12374,-0.092462,14,0.15447
1974,9,21,-0.12177,-0.092509,14,0.15292
1974,9,22,-0.12097,-0.093634,14,0.15298
1974,9,23,-0.1206,-0.093261,14,0.15245
1974,9,24,-0.12995,-0.10074,14,0.16443
1974,9,25,-0.12204,-0.1009,14,0.15834
1974,9,26,-0.1285,-0.10382,14,0.1652
1974,9,27,-0.1275,-0.10555,14,0.16552
1974,9,28,-0.12652,-0.10747,14,0.166
1974,9,29,-0.12461,-0.092245,14,0.15504
1974,9,30,-0.12052,-0.093776,14,0.1527
1974,10,1,-0.11898,-0.094022,14,0.15165
1974,10,2,-0.11896,-0.095122,14,0.15231
1974,10,3,-0.1196,-0.095125,14,0.15281
1974,10,4,-0.1294,-0.10236,14,0.16499
1974,10,5,-0.1214,-0.10284,14,0.1591
1974,10,6,-0.12975,-0.1069,14,0.16812
1974,10,7,-0.13202,-0.1112,14,0.17261
1974,10,8,-0.13444,-0.11559,14,0.1773
1974,10,9,-0.13435,-0.10174,14,0.16853
1974,10,10,-0.13203,-0.1037,14,0.16789
1974,10,11,-0.13176,-0.10437,14,0.16809
1974,10,12,-0.13225,-0.10582,14,0.16937
1974,10,13,-0.13263,-0.10567,14,0.16958
1974,10,14,-0.14351,-0.11276,14,0.18251
1974,10,15,-0.13612,-0.11365,14,0.17733
1974,10,16,-0.14432,-0.11759,14,0.18616
1974,10,17,-0.14606,-0.12204,14,0.19034
1974,10,18,-0.14762,-0.12567,14,0.19387
1974,10,19,-0.14573,-0.11072,14,0.18302
1974,10,20,-0.14194,-0.11191,14,0.18075
1974,10,21,-0.14048,-0.11183,14,0.17956
1974,10,22,-0.1403,-0.11227,14,0.17969
1974,10,23,-0.14022,-0.11081,14,0.17872
1974,10,24,-0.15093,-0.11679,14,0.19084
1974,10,25,-0.14325,-0.11726,14,0.18512
1974,10,26,-0.15163,-0.12024,14,0.19352
1974,10,27,-0.15335,-0.1243,14,0.1974
1974,10,28,-0.15499,-0.1281,14,0.20108
1974,10,29,-0.1526,-0.11344,14,0.19015
1974,10,30,-0.14912,-0.11523,14,0.18846
1974,10,31,-0.14845,-0.11491,14,0.18773
1974,11,1,-0.14882,-0.11488,14,0.188
1974,11,2,-0.14949,-0.11341,14,0.18764
1974,11,3,-0.16115,-0.11901,14,0.20034
1974,11,4,-0.15421,-0.12032,14,0.1956
1974,11,5,-0.16341,-0.12402,14,0.20515
1974,11,6,-0.16643,-0.12902,14,0.21058
1974,11,7,-0.16935,-0.13375,14,0.2158
1974,11,8,-0.16649,-0.11915,14,0.20474
1974,11,9,-0.16298,-0.12097,14,0.20297
1974,11,10,-0.16077,-0.12056,14,0.20095
1974,11,11,-0.15977,-0.1207,14,0.20023
1974,11,12,-0.15872,-0.11892,14,0.19833
1974,11,13,-0.1689,-0.12347,14,0.20922
1974,11,14,-0.15928,-0.12419,14,0.20197
1974,11,15,-0.16611,-0.12621,14,0.20862
1974,11,16,-0.16777,-0.12993,14,0.21221
1974,11,17,-0.16937,-0.13292,14,0.21529
1974,11,18,-0.16491,-0.11765,14,0.20258
1974,11,19,-0.161,-0.12018,14,0.20091
1974,11,20,-0.15883,-0.11996,14,0.19904
1974,11,21,-0.15866,-0.12076,14,0.19939
1974,11,22,-0.15875,-0.11988,14,0.19893
1974,11,23,-0.17091,-0.1256,14,0.2121
1974,11,24,-0.16428,-0.12779,14,0.20813
1974,11,25,-0.17497,-0.13068,14,0.21838
1974,11,26,-0.17868,-0.13527,14,0.22411
1974,11,27,-0.18089,-0.1395,14,0.22843
1974,11,28,-0.17545,-0.12443,14,0.21509
1974,11,29,-0.17185,-0.12656,14,0.21342
1974,11,30,-0.16997,-0.12621,14,0.2117
1974,12,1,-0.1692,-0.12606,14,0.211
1974,12,2,-0.1686,-0.12471,14,0.20971
1974,12,3,-0.17913,-0.12895,14,0.22072
1974,12,4,-0.17017,-0.13055,14,0.21448
1974,12,5,-0.17813,-0.13207,14,0.22175
1974,12,6,-0.17992,-0.13574,14,0.22538
1974,12,7,-0.18187,-0.13955,14,0.22925
1974,12,8,-0.17622,-0.12388,14,0.21541
1974,12,9,-0.17324,-0.12607,14,0.21426
1974,12,10,-0.1714,-0.12639,14,0.21296
1974,12,11,-0.17108,-0.1268,14,0.21295
1974,12,12,-0.17119,-0.12562,14,0.21234
1974,12,13,-0.18265,-0.12953,14,0.22392
1974,12,14,-0.17411,-0.13169,14,0.21831
1974,12,15,-0.18139,-0.13208,14,0.22438
1974,12,16,-0.18168,-0.13411,14,0.22582
1974,12,17,-0.18274,-0.13625,14,0.22794
1974,12,18,-0.17653,-0.12037,14,0.21366
1974,12,19,-0.17339,-0.12286,14,0.21251
1974,12,20,-0.17053,-0.12186,14,0.2096
1974,12,21,-0.16878,-0.12103,14,0.2077
1974,12,22,-0.16653,-0.1181,14,0.20416
1974,12,23,-0.1769,-0.12027,14,0.21392
1974,12,24,-0.1675,-0.12168,14,0.20703
1974,12,25,-0.17477,-0.12123,14,0.2127
1974,12,26,-0.17669,-0.12424,14,0.216
1974,12,27,-0.17909,-0.12788,14,0.22006
1974,12,28,-0.17277,-0.11333,14,0.20662
1974,12,29,-0.17049,-0.11723,14,0.2069
1974,12,30,-0.16985,-0.11847,14,0.20708
1974,12,31,-0.1711,-0.11986,14,0.20891
1975,1,1,-0.1715,-0.11912,14,0.20882
1975,1,2,-0.18519,-0.12312,14,0.22238
1975,1,3,-0.17776,-0.1261,14,0.21795
1975,1,4,-0.18609,-0.12569,14,0.22456
1975,1,5,-0.18801,-0.12811,14,0.22751
1975,1,6,-0.19004,-0.1306,14,0.23058
1975,1,7,-0.18247,-0.11549,14,0.21595
1975,1,8,-0.17944,-0.11831,14,0.21493
1975,1,9,-0.17728,-0.11809,14,0.21301
1975,1,10,-0.17719,-0.11853,14,0.21318
1975,1,11,-0.17704,-0.11729,14,0.21237
1975,1,12,-0.18964,-0.11998,14,0.2244
1975,1,13,-0.18208,-0.12358,14,0.22006
1975,1,14,-0.19148,-0.12398,14,0.22811
1975,1,15,-0.19495,-0.12787,14,0.23314
1975,1,16,-0.19807,-0.13151,14,0.23775
1975,1,17,-0.19066,-0.1165,14,0.22344
1975,1,18,-0.18747,-0.11907,14,0.22209
1975,1,19,-0.18472,-0.11815,14,0.21927
1975,1,20,-0.18393,-0.11737,14,0.21819
1975,1,21,-0.18227,-0.11437,14,0.21518
1975,1,22,-0.19304,-0.11514,14,0.22477
1975,1,23,-0.18375,-0.11774,14,0.21823
1975,1,24,-0.19135,-0.11649,14,0.22402
1975,1,25,-0.19166,-0.11852,14,0.22535
1975,1,26,-0.1916,-0.12037,14,0.22627
1975,1,27,-0.17978,-0.1039,14,0.20764
1975,1,28,-0.17363,-0.10553,14,0.20318
1975,1,29,-0.16845,-0.10396,14,0.19795
1975,1,30,-0.16479,-0.10221,14,0.19391
1975,1,31,-0.16152,-0.098457,14,0.18916
1975,2,1,-0.17102,-0.096976,14,0.1966
1975,2,2,-0.16033,-0.098211,14,0.18802
1975,2,3,-0.1664,-0.095139,14,0.19168
1975,2,4,-0.16763,-0.09741,14,0.19388
1975,2,5,-0.16915,-0.099741,14,0.19637
1975,2,6,-0.15867,-0.084402,14,0.17972
1975,2,7,-0.15546,-0.088128,14,0.1787
1975,2,8,-0.15291,-0.088856,14,0.17685
1975,2,9,-0.15358,-0.090677,14,0.17835
1975,2,10,-0.15498,-0.090513,14,0.17947
1975,2,11,-0.16949,-0.09224,14,0.19297
1975,2,12,-0.16359,-0.096998,14,0.19018
1975,2,13,-0.174,-0.095912,14,0.19868
1975,2,14,-0.17865,-0.099867,14,0.20467
1975,2,15,-0.18271,-0.10418,14,0.21032
1975,2,16,-0.17356,-0.090462,14,0.19572
1975,2,17,-0.17234,-0.095702,14,0.19713
1975,2,18,-0.17115,-0.097523,14,0.19699
1975,2,19,-0.17186,-0.0996,14,0.19863
1975,2,20,-0.1726,-0.09917,14,0.19906
1975,2,21,-0.18717,-0.10114,14,0.21275
1975,2,22,-0.18086,-0.10712,14,0.2102
1975,2,23,-0.19053,-0.10646,14,0.21826
1975,2,24,-0.19393,-0.10989,14,0.2229
1975,2,25,-0.197,-0.113,14,0.2271
1975,2,26,-0.18693,-0.099555,14,0.21178
1975,2,27,-0.18594,-0.10505,14,0.21356
1975,2,28,-0.18458,-0.10669,14,0.21319
1975,3,1,-0.18486,-0.1085,14,0.21435
1975,3,2,-0.18456,-0.10775,14,0.21371
1975,3,3,-0.1982,-0.1085,14,0.22596
1975,3,4,-0.19193,-0.11397,14,0.22322
1975,3,5,-0.20166,-0.11229,14,0.23082
1975,3,6,-0.206,-0.11581,14,0.23632
1975,3,7,-0.21009,-0.1191,14,0.2415
1975,3,8,-0.19926,-0.10493,14,0.2252
1975,3,9,-0.19804,-0.10872,14,0.22592
1975,3,10,-0.19651,-0.10866,14,0.22455
1975,3,11,-0.19677,-0.10847,14,0.22469
1975,3,12,-0.1965,-0.10605,14,0.22329
1975,3,13,-0.20986,-0.10498,14,0.23466
1975,3,14,-0.20306,-0.11036,14,0.23111
1975,3,15,-0.21171,-0.10796,14,0.23765
1975,3,16,-0.21517,-0.11114,14,0.24218
1975,3,17,-0.21882,-0.11424,14,0.24685
1975,3,18,-0.20749,-0.10077,14,0.23067
1975,3,19,-0.20658,-0.10562,14,0.23202
1975,3,20,-0.20568,-0.10739,14,0.23203
1975,3,21,-0.20714,-0.10979,14,0.23444
1975,3,22,-0.20748,-0.10933,14,0.23452
1975,3,23,-0.22166,-0.10888,14,0.24696
1975,3,24,-0.21672,-0.11639,14,0.246
1975,3,25,-0.22651,-0.11435,14,0.25374
1975,3,26,-0.2306,-0.11739,14,0.25876
1975,3,27,-0.23392,-0.11982,14,0.26282
1975,3,28,-0.22086,-0.10564,14,0.24483
1975,3,29,-0.21893,-0.11019,14,0.2451
1975,3,30,-0.21657,-0.11135,14,0.24352
1975,3,31,-0.21632,-0.11289,14,0.244
1975,4,1,-0.21553,-0.11184,14,0.24282
1975,4,2,-0.22864,-0.11072,14,0.25404
1975,4,3,-0.22208,-0.11758,14,0.25129
1975,4,4,-0.23063,-0.11442,14,0.25745
1975,4,5,-0.23405,-0.11645,14,0.26142
1975,4,6,-0.23701,-0.11822,14,0.26486
1975,4,7,-0.22307,-0.10426,14,0.24623
1975,4,8,-0.22004,-0.10844,14,0.24531
1975,4,9,-0.21547,-0.10843,14,0.24121
1975,4,10,-0.21323,-0.10855,14,0.23927
1975,4,11,-0.20983,-0.1055,14,0.23486
1975,4,12,-0.22114,-0.10256,14,0.24377
1975,4,13,-0.21414,-0.10901,14,0.24028
1975,4,14,-0.2223,-0.10494,14,0.24582
1975,4,15,-0.22645,-0.10775,14,0.25078
1975,4,16,-0.23058,-0.11055,14,0.25571
1975,4,17,-0.21793,-0.0984,14,0.23911
1975,4,18,-0.21845,-0.10442,14,0.24212
1975,4,19,-0.21815,-0.10708,14,0.24301
1975,4,20,-0.21937,-0.10885,14,0.24489
1975,4,21,-0.21945,-0.10729,14,0.24427
1975,4,22,-0.23359,-0.10435,14,0.25584
1975,4,23,-0.22877,-0.1112,14,0.25436
1975,4,24,-0.23766,-0.10631,14,0.26036
1975,4,25,-0.24203,-0.10799,14,0.26503
1975,4,26,-0.24601,-0.10989,14,0.26944
1975,4,27,-0.23184,-0.097226,14,0.2514
1975,4,28,-0.23096,-0.1025,14,0.25269
1975,4,29,-0.2288,-0.10327,14,0.25103
1975,4,30,-0.22886,-0.10391,14,0.25134
1975,5,1,-0.22785,-0.10196,14,0.24962
1975,5,2,-0.24111,-0.09861,15,0.2605
1975,5,3,-0.23531,-0.10579,14,0.258
1975,5,4,-0.24319,-0.10053,15,0.26315
1975,5,5,-0.247,-0.10256,14,0.26745
1975,5,6,-0.25078,-0.10442,14,0.27165
1975,5,7,-0.23632,-0.093093,15,0.25399
1975,5,8,-0.23617,-0.099552,14,0.2563
1975,5,9,-0.23468,-0.10135,14,0.25563
1975,5,10,-0.23484,-0.10269,14,0.2563
1975,5,11,-0.23339,-0.10074,14,0.25421
1975,5,12,-0.24587,-0.096674,15,0.26419
1975,5,13,-0.23977,-0.10442,14,0.26152
1975,5,14,-0.24792,-0.099538,15,0.26715
1975,5,15,-0.25255,-0.10192,15,0.27234
1975,5,16,-0.25725,-0.10434,15,0.2776
1975,5,17,-0.24304,-0.093847,15,0.26053
1975,5,18,-0.24371,-0.10048,15,0.26361
1975,5,19,-0.24239,-0.10249,14,0.26317
1975,5,20,-0.24239,-0.10341,14,0.26353
1975,5,21,-0.23985,-0.10079,14,0.26017
1975,5,22,-0.2515,-0.095607,15,0.26906
1975,5,23,-0.2453,-0.10349,14,0.26624
1975,5,24,-0.25209,-0.097473,15,0.27028
1975,5,25,-0.25553,-0.098623,15,0.2739
1975,5,26,-0.25909,-0.10031,15,0.27783
1975,5,27,-0.24351,-0.089938,15,0.25959
1975,5,28,-0.24461,-0.096814,15,0.26307
1975,5,29,-0.24369,-0.099158,15,0.26309
1975,5,30,-0.2444,-0.10098,15,0.26444
1975,5,31,-0.24328,-0.099477,15,0.26283
1975,6,1,-0.2565,-0.095562,15,0.27372
1975,6,2,-0.25225,-0.10497,14,0.27322
1975,6,3,-0.26002,-0.098965,15,0.27821
1975,6,4,-0.26408,-0.10052,15,0.28256
1975,6,5,-0.26812,-0.10223,15,0.28695
1975,6,6,-0.25244,-0.09254,15,0.26887
1975,6,7,-0.25369,-0.09923,15,0.2724
1975,6,8,-0.2533,-0.10179,15,0.27299
1975,6,9,-0.25453,-0.10295,15,0.27456
1975,6,10,-0.2539,-0.10076,15,0.27317
1975,6,11,-0.26643,-0.094807,15,0.28279
1975,6,12,-0.26169,-0.10354,15,0.28142
1975,6,13,-0.26905,-0.096831,15,0.28595
1975,6,14,-0.27429,-0.098792,15,0.29154
1975,6,15,-0.27912,-0.10054,15,0.29667
1975,6,16,-0.26319,-0.09091,15,0.27845
1975,6,17,-0.26485,-0.097415,15,0.2822
1975,6,18,-0.26513,-0.10038,15,0.2835
1975,6,19,-0.26714,-0.1025,15,0.28613
1975,6,20,-0.26691,-0.1015,15,0.28556
1975,6,21,-0.28021,-0.096359,15,0.29632
1975,6,22,-0.27681,-0.10623,15,0.2965
1975,6,23,-0.28457,-0.099323,15,0.3014
1975,6,24,-0.28949,-0.10005,15,0.30629
1975,6,25,-0.29377,-0.10049,15,0.31048
1975,6,26,-0.27616,-0.089888,15,0.29042
1975,6,27,-0.276,-0.094736,15,0.29181
1975,6,28,-0.2733,-0.095449,15,0.28949
1975,6,29,-0.27316,-0.095662,15,0.28943
1975,6,30,-0.2706,-0.092656,15,0.28602
1975,7,1,-0.28186,-0.085233,15,0.29446
1975,7,2,-0.2776,-0.094568,15,0.29327
1975,7,3,-0.2844,-0.087117,15,0.29744
1975,7,4,-0.28897,-0.088089,15,0.3021
1975,7,5,-0.2934,-0.089093,15,0.30663
1975,7,6,-0.27649,-0.080614,15,0.288
1975,7,7,-0.27887,-0.087766,15,0.29235
1975,7,8,-0.27831,-0.090608,15,0.29269
1975,7,9,-0.27925,-0.092167,15,0.29406
1975,7,10,-0.27768,-0.090144,15,0.29195
1975,7,11,-0.29019,-0.083008,15,0.30183
1975,7,12,-0.28757,-0.093508,15,0.30239
1975,7,13,-0.2948,-0.086372,15,0.30719
1975,7,14,-0.2994,-0.087232,15,0.31185
1975,7,15,-0.30343,-0.087959,15,0.31592
1975,7,16,-0.2853,-0.078952,15,0.29602
1975,7,17,-0.28648,-0.08506,15,0.29884
1975,7,18,-0.28503,-0.087499,15,0.29816
1975,7,19,-0.28515,-0.088636,15,0.29861
1975,7,20,-0.28238,-0.085632,15,0.29508
1975,7,21,-0.29335,-0.077144,15,0.30333
1975,7,22,-0.29003,-0.087309,15,0.30289
1975,7,23,-0.29643,-0.079588,15,0.30693
1975,7,24,-0.30173,-0.080905,15,0.31239
1975,7,25,-0.30688,-0.082074,15,0.31766
1975,7,26,-0.29036,-0.075461,15,0.30001
1975,7,27,-0.29351,-0.082547,15,0.3049
1975,7,28,-0.29364,-0.085827,15,0.30593
1975,7,29,-0.29452,-0.0872,15,0.30716
1975,7,30,-0.29275,-0.085158,15,0.30488
1975,7,31,-0.30454,-0.076676,15,0.31404
1975,8,1,-0.30286,-0.08741,15,0.31522
1975,8,2,-0.30993,-0.079068,15,0.31986
1975,8,3,-0.31511,-0.079123,15,0.32489
1975,8,4,-0.31973,-0.079041,15,0.32935
1975,8,5,-0.30193,-0.071427,15,0.31027
1975,8,6,-0.3039,-0.077046,15,0.31352
1975,8,7,-0.30294,-0.079242,15,0.31314
1975,8,8,-0.30363,-0.080079,15,0.31401
1975,8,9,-0.30193,-0.078233,15,0.3119
1975,8,10,-0.31269,-0.069336,15,0.32028
1975,8,11,-0.31029,-0.079761,15,0.32038
1975,8,12,-0.31701,-0.071367,15,0.32495
1975,8,13,-0.32287,-0.072117,15,0.33083
1975,8,14,-0.3274,-0.07228,15,0.33528
1975,8,15,-0.3089,-0.065662,15,0.3158
1975,8,16,-0.31086,-0.072194,15,0.31913
1975,8,17,-0.31028,-0.075681,15,0.31938
1975,8,18,-0.31109,-0.077514,15,0.3206
1975,8,19,-0.30896,-0.075623,15,0.31808
1975,8,20,-0.31882,-0.065866,15,0.32555
1975,8,21,-0.31593,-0.076232,15,0.325
1975,8,22,-0.32091,-0.066917,15,0.32781
1975,8,23,-0.32524,-0.066791,15,0.33203
1975,8,24,-0.3294,-0.066887,15,0.33612
1975,8,25,-0.31119,-0.061374,15,0.31718
1975,8,26,-0.31414,-0.068166,15,0.32145
1975,8,27,-0.31363,-0.071648,15,0.32171
1975,8,28,-0.31408,-0.073343,15,0.32253
1975,8,29,-0.31097,-0.071563,15,0.31909
1975,8,30,-0.32028,-0.061923,15,0.32622
1975,8,31,-0.31797,-0.073242,15,0.32629
1975,9,1,-0.32282,-0.064143,15,0.32913
1975,9,2,-0.32744,-0.063982,15,0.33363
1975,9,3,-0.33203,-0.063909,15,0.33812
1975,9,4,-0.31334,-0.059011,15,0.31885
1975,9,5,-0.31622,-0.065189,15,0.32287
1975,9,6,-0.31609,-0.068691,15,0.32347
1975,9,7,-0.31684,-0.070617,15,0.32461
1975,9,8,-0.31401,-0.069445,15,0.3216
1975,9,9,-0.32328,-0.059293,15,0.32867
1975,9,10,-0.32152,-0.070261,15,0.32911
1975,9,11,-0.32635,-0.060811,15,0.33197
1975,9,12,-0.33067,-0.060808,15,0.33621
1975,9,13,-0.33483,-0.060771,15,0.3403
1975,9,14,-0.31631,-0.05645,15,0.32131
1975,9,15,-0.31921,-0.061597,15,0.3251
1975,9,16,-0.31839,-0.06374,15,0.3247
1975,9,17,-0.3185,-0.064238,15,0.32491
1975,9,18,-0.3156,-0.061882,15,0.32161
1975,9,19,-0.32511,-0.050664,15,0.32903
1975,9,20,-0.32518,-0.061891,15,0.33102
1975,9,21,-0.3301,-0.052145,15,0.3342
1975,9,22,-0.33491,-0.051375,15,0.33883
1975,9,23,-0.33909,-0.05061,15,0.34285
1975,9,24,-0.3194,-0.046567,15,0.32278
1975,9,25,-0.32178,-0.052584,15,0.32605
1975,9,26,-0.32132,-0.056177,15,0.32619
1975,9,27,-0.32288,-0.058278,15,0.3281
1975,9,28,-0.32113,-0.057248,15,0.32619
1975,9,29,-0.33084,-0.046617,15,0.33411
1975,9,30,-0.33114,-0.058047,15,0.33619
1975,10,1,-0.33594,-0.04783,15,0.33933
1975,10,2,-0.34136,-0.04709,15,0.3446
1975,10,3,-0.34589,-0.046353,15,0.34898
1975,10,4,-0.32678,-0.043439,15,0.32966
1975,10,5,-0.33002,-0.049042,15,0.33365
1975,10,6,-0.32998,-0.052347,15,0.3341
1975,10,7,-0.33109,-0.053611,15,0.33541
1975,10,8,-0.32858,-0.052039,15,0.33268
1975,10,9,-0.33716,-0.040175,15,0.33955
1975,10,10,-0.33751,-0.051332,15,0.34139
1975,10,11,-0.34179,-0.040803,15,0.34421
1975,10,12,-0.34685,-0.039655,15,0.34911
1975,10,13,-0.35203,-0.038693,15,0.35415
1975,10,14,-0.33341,-0.036116,15,0.33536
1975,10,15,-0.33735,-0.041609,15,0.3399
1975,10,16,-0.33762,-0.045614,15,0.34069
1975,10,17,-0.33899,-0.047536,15,0.34231
1975,10,18,-0.33624,-0.046647,15,0.33946
1975,10,19,-0.34421,-0.035324,15,0.34602
1975,10,20,-0.34506,-0.047844,15,0.34836
1975,10,21,-0.34922,-0.03866,15,0.35136
1975,10,22,-0.35417,-0.038441,15,0.35625
1975,10,23,-0.35903,-0.038374,15,0.36107
1975,10,24,-0.33987,-0.037447,15,0.34193
1975,10,25,-0.34328,-0.042924,15,0.34595
1975,10,26,-0.34254,-0.046704,15,0.34571
1975,10,27,-0.34327,-0.048404,15,0.34666
1975,10,28,-0.34023,-0.047334,15,0.3435
1975,10,29,-0.34814,-0.035503,15,0.34994
1975,10,30,-0.34854,-0.047295,15,0.35174
1975,10,31,-0.35127,-0.036736,15,0.35319
1975,11,1,-0.35503,-0.034767,15,0.35673
1975,11,2,-0.35863,-0.032913,15,0.36013
1975,11,3,-0.3386,-0.031591,15,0.34007
1975,11,4,-0.34176,-0.035913,15,0.34364
1975,11,5,-0.34149,-0.039255,15,0.34374
1975,11,6,-0.3414,-0.039872,15,0.34372
1975,11,7,-0.33674,-0.03823,15,0.33891
1975,11,8,-0.3428,-0.024928,15,0.3437
1975,11,9,-0.34312,-0.035445,15,0.34494
1975,11,10,-0.34476,-0.023426,15,0.34555
1975,11,11,-0.34838,-0.020514,15,0.34898
1975,11,12,-0.35254,-0.01842,15,0.35302
1975,11,13,-0.33374,-0.018214,15,0.33424
1975,11,14,-0.33807,-0.022612,15,0.33883
1975,11,15,-0.33868,-0.026121,15,0.33969
1975,11,16,-0.34032,-0.027294,15,0.34141
1975,11,17,-0.33814,-0.026465,15,0.33918
1975,11,18,-0.34616,-0.014289,15,0.34646
1975,11,19,-0.34927,-0.026128,15,0.35024
1975,11,20,-0.3526,-0.015437,15,0.35294
1975,11,21,-0.35801,-0.013921,15,0.35828
1975,11,22,-0.36306,-0.012551,15,0.36328
1975,11,23,-0.34501,-0.013829,15,0.34529
1975,11,24,-0.35011,-0.018456,15,0.35059
1975,11,25,-0.35063,-0.022229,15,0.35133
1975,11,26,-0.35251,-0.024572,15,0.35336
1975,11,27,-0.35088,-0.025507,15,0.3518
1975,11,28,-0.35868,-0.013762,15,0.35895
1975,11,29,-0.36175,-0.026025,15,0.36269
1975,11,30,-0.36427,-0.015346,15,0.3646
1975,12,1,-0.3691,-0.013402,15,0.36934
1975,12,2,-0.37378,-0.012089,15,0.37397
1975,12,3,-0.35579,-0.014472,15,0.35609
1975,12,4,-0.36149,-0.019848,15,0.36203
1975,12,5,-0.36253,-0.023961,15,0.36333
1975,12,6,-0.36448,-0.02562,15,0.36538
1975,12,7,-0.36218,-0.025852,15,0.3631
1975,12,8,-0.36945,-0.013316,15,0.36969
1975,12,9,-0.37368,-0.025884,15,0.37457
1975,12,10,-0.37732,-0.016454,15,0.37768
1975,12,11,-0.38322,-0.015159,15,0.38351
1975,12,12,-0.38885,-0.013546,15,0.38909
1975,12,13,-0.3709,-0.016046,15,0.37124
1975,12,14,-0.37615,-0.020681,15,0.37672
1975,12,15,-0.37714,-0.024776,15,0.37795
1975,12,16,-0.37995,-0.026973,15,0.38091
1975,12,17,-0.3779,-0.02742,15,0.37889
1975,12,18,-0.38346,-0.014069,15,0.38372
1975,12,19,-0.3858,-0.025027,15,0.38661
1975,12,20,-0.38652,-0.013806,15,0.38677
1975,12,21,-0.39074,-0.011607,15,0.39091
1975,12,22,-0.39483,-0.0096592,15,0.39495
1975,12,23,-0.37693,-0.013627,15,0.37717
1975,12,24,-0.38269,-0.017986,15,0.38311
1975,12,25,-0.38416,-0.021875,15,0.38479
1975,12,26,-0.38634,-0.023382,15,0.38704
1975,12,27,-0.38509,-0.024749,15,0.38588
1975,12,28,-0.39224,-0.012813,15,0.39244
1975,12,29,-0.39693,-0.024613,15,0.39769
1975,12,30,-0.39919,-0.014169,15,0.39945
1975,12,31,-0.40407,-0.011607,15,0.40424
1976,1,1,-0.40899,-0.0092155,15,0.40909
1976,1,2,-0.39134,-0.013156,15,0.39156
1976,1,3,-0.39668,-0.016599,15,0.39703
1976,1,4,-0.39783,-0.020114,15,0.39834
1976,1,5,-0.39987,-0.02162,15,0.40046
1976,1,6,-0.39759,-0.022567,15,0.39823
1976,1,7,-0.40274,-0.0095015,15,0.40285
1976,1,8,-0.4075,-0.021263,15,0.40805
1976,1,9,-0.40968,-0.011683,15,0.40984
1976,1,10,-0.41392,-0.0095471,15,0.41403
1976,1,11,-0.41684,-0.0068315,15,0.4169
1976,1,12,-0.39861,-0.012201,15,0.39879
1976,1,13,-0.40367,-0.015675,15,0.40397
1976,1,14,-0.40521,-0.019522,15,0.40568
1976,1,15,-0.40691,-0.020596,15,0.40743
1976,1,16,-0.40459,-0.020983,15,0.40513
1976,1,17,-0.40829,-0.006361,15,0.40834
1976,1,18,-0.41124,-0.015784,15,0.41154
1976,1,19,-0.41124,-0.0040282,15,0.41126
1976,1,20,-0.41508,-0.00052015,15,0.41508
1976,1,21,-0.41867,0.0027612,16,0.41868
1976,1,22,-0.40144,-0.0023938,15,0.40145
1976,1,23,-0.40773,-0.0045476,15,0.40775
1976,1,24,-0.40973,-0.0070279,15,0.40979
1976,1,25,-0.41172,-0.0066153,15,0.41177
1976,1,26,-0.40841,-0.0054964,15,0.40845
1976,1,27,-0.41112,0.010569,16,0.41126
1976,1,28,-0.41481,0.0020802,16,0.41482
1976,1,29,-0.41512,0.014027,16,0.41535
1976,1,30,-0.4187,0.017657,16,0.41907
1976,1,31,-0.42219,0.020777,16,0.4227
1976,2,1,-0.4052,0.014394,16,0.40546